SL-8 DEB, 2334

Orbit data source: Space-Track

SL-8 DEB, 2334 is space debris in LEO originally from a launch on Mon, 15 Mar 1965 UTC launched from the Tyuratam Missile And Space Complex (TTMTR). Debris objects in space refer to the collection of defunct objects orbiting the Earth. Examples of debris include non-operational satellites, rocket bodies, and fragments generated from explosions, collisions, or faulty payload assembly.

Loading next visibility...
Identifier
2334, 1965-020EH
Orbit
LEO
Country
Flag of CISCIS
Related business
Manufacturer
Unknown
Mission
Spacecraft
Bus & Motor
Unknown
Mass
Unknown
Launch date (UTC)
1965-03-15 (61 years ago)
Launch vehicle
Unknown
Launch site
Tyuratam Missile And Space Complex (TTMTR)
Object type
Payload
Rocket body
Debris
Shape & HBR
Unknown shape, 0.1 m
Radar Cross Section
Small (<0.1 m²)

Expand to show TLE details & history
Last TLE update: 22 hours ago

TLE from 22 hours ago
0 SL-8 DEB
1 02334U 65020EH  25288.40075862  .00000339  00000-0  54034-3 0  9996
2 02334  55.6745 355.9834 0583620 346.0061  12.5277 13.11937446818816
Epoch: 2025-10-15T09:37Z
TLE epoch observation values (Epoch: 2025-10-15T09:37:05.544Z)
Latitude
-0.00003°
Longitude
-172.46509°
Altitude
785.424 km
Speed
7.671 km/s
True Right ascension
23h 43m 56s
True Declination
0° 00' 00"
Sunlit
Object was in full shadow at epoch
Visualization orbit readout
Latitude
Unknown
Longitude
Unknown
Altitude
Unknown
Speed
Unknown
Apparent Right ascension
Unknown
Apparent Declination
Unknown
Sunlit
N/A
Visualization observer readout
Local Sidereal Time
01:59:36
Azimuth
Unknown
Elevation
Unknown
Doppler factor
Unknown
Orbital elements
Apogee altitude
1,658.726 km
Perigee altitude
772.361 km
Semi-major axis
7,593.681 km
Eccentricity
0.05836
Inclination
55.6745°
RAAN
355.9834°
Arg. of periapsis
346.0061°
True anomaly
14.08902°
Mean anomaly
12.5277°
Eccentric anomaly
13.29678°
Mean motion
3.27993 °/min
Orbital period
109.76 mins
BSTAR
0.00054034
Loading maneuver chart data...
Computing Atmospheric mass density...
Loading historical data...
Loading historical data...
Loading historical data...
Loading historical data...
Loading historical data...
Loading historical data...
Loading historical data...

Documentation

Showing up to 5 results
|